Vorticity
nan nan nan nan nan nan nan nan nan nan nan nan nan nan nan nan nan nan nan nan nan nan nan nan nan nan nan nan nan nan nan nan nan nan nan nan nan nan nan nan nan nan nan nan nan nan nan nan nan nan nan nan nan nan
nan 12 11 12 14 17 19 21 19 17 17 17 17 17 16 16 12 -5 1 13 6 6 11 11 10 12 16 14 13 8 8 11 9 10 10 10 8 16 11 7 6 11 13 10 11 7 3 7 8 9 10 7 7 nan
nan 15 15 16 17 19 19 17 17 19 19 16 14 15 17 18 13 -3 1 10 8 7 8 14 19 7 12 11 13 10 10 13 12 11 12 10 12 11 8 11 9 10 13 8 8 13 14 9 12 12 5 7 7 nan
nan 19 22 22 20 16 17 12 12 17 18 18 18 16 18 20 16 -0 -0 9 6 7 12 14 14 9 10 6 6 9 11 12 12 11 12 10 12 11 12 13 13 14 10 9 3 9 16 14 11 10 12 13 10 nan
nan 17 23 20 16 18 24 27 24 23 28 29 25 21 20 18 9 2 8 11 6 7 9 12 15 19 11 14 11 3 5 7 9 10 12 11 7 10 10 11 12 12 12 18 12 8 11 13 15 14 14 10 11 nan
nan 23 16 11 14 18 24 36 33 22 25 35 29 23 18 17 -1 -4 10 14 7 6 12 13 11 15 14 14 9 12 11 10 10 9 9 12 13 12 12 6 4 7 9 10 12 19 17 8 11 15 16 11 10 nan
nan 19 12 12 15 20 25 27 15 13 27 27 30 30 18 -1 -5 8 13 22 11 2 10 10 11 19 14 6 9 13 13 10 9 12 15 9 9 12 14 5 1 7 11 9 10 22 14 11 12 12 10 11 13 nan
nan 13 12 11 11 16 21 17 15 25 27 16 21 22 9 -10 -3 9 28 24 -0 4 11 10 10 11 12 11 11 11 12 13 10 10 10 10 11 13 3 2 8 10 16 9 7 19 15 14 13 11 13 12 10 nan
nan 15 13 13 9 8 5 1 5 6 3 3 1 0 -0 4 7 15 12 3 7 11 10 11 14 8 9 12 10 11 11 10 12 12 12 10 8 6 6 9 10 11 13 12 15 10 10 15 11 13 15 14 13 nan
nan 15 8 4 3 4 1 0 1 5 11 1 -7 1 9 10 11 8 9 8 11 12 13 11 9 11 10 12 11 10 13 13 13 9 10 10 11 3 6 14 11 11 12 17 18 12 12 11 10 11 15 15 13 nan
nan 4 5 4 5 7 8 11 9 13 17 14 13 13 9 10 16 13 12 10 9 12 13 13 13 10 10 12 12 10 10 12 12 12 10 9 7 7 10 11 13 14 16 18 17 15 16 16 15 13 11 13 13 nan
nan 3 5 7 9 11 12 17 21 19 14 13 10 8 10 12 14 13 10 10 13 11 9 12 13 13 13 11 12 13 11 11 10 11 11 9 7 10 12 10 13 15 16 16 16 15 15 16 16 14 12 11 12 nan
nan 7 8 9 9 13 16 15 20 17 13 11 10 11 11 8 12 13 11 10 9 9 10 12 12 11 11 13 12 15 12 9 9 12 11 7 8 12 13 11 10 12 13 12 12 12 12 11 14 15 13 11 12 nan
nan 7 8 9 10 12 16 16 16 14 14 13 9 12 13 12 9 9 11 10 9 9 11 14 12 11 12 12 10 11 11 14 13 11 9 7 12 13 12 12 10 10 11 11 11 11 11 11 12 13 13 14 12 nan
nan 7 5 6 12 12 12 13 16 15 10 10 12 12 11 13 10 11 11 11 12 11 11 13 13 10 13 11 13 13 12 11 11 12 10 10 12 12 12 12 12 12 12 11 10 11 11 11 11 11 12 13 12 nan
nan 10 -1 3 10 18 18 10 12 15 11 9 9 12 11 10 10 13 13 11 10 14 15 12 14 10 10 12 11 12 13 11 13 12 12 12 11 13 14 13 13 12 12 11 11 11 10 10 11 11 11 11 12 nan
nan 5 3 11 12 11 16 18 10 12 13 10 9 10 15 12 11 12 11 12 13 13 13 12 11 14 12 11 10 12 15 15 13 11 11 11 13 13 12 11 11 11 12 13 13 12 12 12 10 7 8 10 11 nan
nan 6 5 12 19 16 11 13 13 11 11 11 10 12 14 11 14 13 11 14 18 15 13 13 9 10 15 13 15 14 11 11 12 13 13 11 10 11 11 10 11 11 11 11 11 9 10 13 11 10 10 10 9 nan
nan 4 5 16 21 16 11 11 14 10 10 14 10 15 15 12 13 17 15 15 16 16 14 10 11 12 11 16 16 11 11 11 10 9 8 9 12 12 11 8 8 9 10 12 12 12 8 10 12 12 11 11 10 nan
nan 7 12 19 18 14 11 12 14 11 13 12 6 7 14 14 13 14 15 14 17 12 10 13 14 15 15 16 14 12 13 13 11 9 9 9 8 8 11 12 10 10 9 8 9 13 13 8 10 12 12 12 11 nan
nan 11 14 16 16 15 14 10 13 14 12 12 12 6 5 4 7 11 14 15 14 15 13 12 12 13 15 16 14 13 14 15 14 14 13 10 10 10 10 9 11 11 11 10 10 8 11 11 11 12 12 10 11 nan
nan 14 15 13 15 12 7 14 19 10 11 12 10 9 9 7 4 7 9 15 13 12 14 14 15 14 11 13 14 15 14 12 12 11 12 13 12 10 11 12 11 11 10 11 11 11 9 11 11 11 12 12 12 nan
nan 16 13 14 13 13 12 11 11 14 12 11 11 11 12 14 13 11 9 11 11 11 13 11 10 13 12 10 9 10 13 12 11 11 9 10 11 11 10 12 14 12 10 11 12 11 11 11 12 12 12 14 12 nan
nan 10 15 13 12 11 11 13 13 12 11 14 13 11 13 14 10 12 11 11 14 15 9 10 9 8 7 8 10 11 12 10 9 12 13 12 10 11 12 11 11 12 13 13 12 11 11 12 11 12 13 12 13 nan
nan 10 15 10 12 14 11 12 14 14 13 13 10 11 15 14 14 13 12 9 10 11 13 12 11 12 11 8 8 9 12 14 12 9 12 16 12 9 9 10 9 10 13 12 13 13 12 13 13 12 12 12 11 nan
nan 15 12 11 13 14 12 12 15 14 10 11 11 11 14 13 12 13 14 12 11 11 15 14 11 8 10 13 12 10 12 14 13 9 10 14 16 14 11 9 8 8 14 15 12 10 13 14 12 11 11 11 11 nan
nan 15 13 11 18 11 13 12 13 13 12 12 11 13 13 13 12 11 11 12 13 13 16 16 14 13 12 11 10 11 13 14 15 13 12 11 12 15 15 11 11 11 11 13 13 13 11 11 11 9 9 12 13 nan
nan 13 13 12 13 16 14 10 12 12 9 11 14 15 18 12 8 13 13 13 12 13 12 13 13 13 12 12 12 12 12 13 12 10 9 8 11 12 12 12 13 15 13 13 12 10 12 12 9 9 9 10 10 nan
nan 13 10 14 13 13 13 16 11 8 13 17 13 12 11 13 14 13 14 12 12 12 10 8 8 12 10 10 11 13 16 16 10 11 11 7 7 10 13 13 11 11 13 12 16 18 12 11 12 14 13 12 12 nan
nan 15 12 10 12 9 12 14 14 13 17 16 12 11 9 11 15 14 15 13 13 15 13 11 11 11 12 9 7 10 14 15 16 16 14 14 12 11 12 11 10 11 13 12 10 10 12 14 13 15 15 14 14 nan
nan 11 11 15 13 13 15 9 8 14 12 13 13 15 13 9 8 12 13 15 14 12 12 11 13 15 15 12 11 9 11 13 14 14 15 14 14 12 11 12 14 14 13 11 12 13 13 13 12 11 11 10 11 nan
nan 19 13 12 11 10 10 17 13 9 11 11 11 10 11 16 14 10 11 13 12 15 14 12 10 13 12 12 12 14 15 14 12 13 12 11 12 11 11 12 14 14 13 12 12 13 14 14 13 13 12 11 13 nan
nan nan nan nan nan nan nan nan nan nan nan nan nan nan nan nan nan nan nan nan nan nan nan nan nan nan nan nan nan nan nan nan nan nan nan nan nan nan nan nan nan nan nan nan nan nan nan nan nan nan nan nan nan nan
CAPE
69 57 62 52 37 37 31 36 27 37 48 59 67 66 72 54 64 62 15 2 8 4 0 2 12 0 0 0 0 0 0 0 10 1 0 0 0 4 14 2 0 6 0 0 1 6 1 0 13 0 0 0 0 0
50 41 17 23 26 31 49 42 41 48 52 53 61 69 73 82 46 69 44 32 37 13 9 23 0 22 1 0 0 0 0 0 3 0 0 0 0 0 0 1 3 40 0 0 0 0 17 0 0 0 0 0 0 0
15 16 41 33 37 36 38 40 42 46 52 39 46 64 81 91 99 41 35 29 51 19 0 3 22 78 8 5 12 5 0 35 141 0 0 1 12 0 0 0 0 0 39 47 14 0 71 20 9 0 0 0 0 0
27 34 27 28 40 32 22 30 23 24 34 43 56 48 61 106 129 118 17 15 15 29 8 27 0 3 0 2 12 75 79 213 262 24 15 0 6 0 0 2 0 0 113 105 26 27 45 21 4 1 0 0 0 0
26 15 19 19 25 27 20 13 15 35 44 47 35 60 65 132 159 47 37 20 2 0 0 8 30 3 10 5 16 18 4 55 196 111 1 0 0 3 0 4 0 4 18 79 4 36 47 9 3 7 0 0 0 0
16 7 11 28 27 25 21 19 17 34 40 25 74 87 146 117 122 44 48 19 3 40 18 15 0 79 5 3 7 27 26 88 84 3 0 0 17 0 7 0 0 1 2 2 0 0 0 0 0 0 0 0 0 0
20 19 16 26 8 15 18 24 27 13 43 49 58 104 98 98 12 7 0 0 0 9 28 0 0 4 20 36 20 61 105 146 118 90 10 5 0 46 0 2 2 3 4 0 0 0 2 0 0 0 0 0 0 0
14 13 11 26 2 14 7 5 22 22 87 61 50 59 56 40 46 14 8 0 0 20 0 0 3 2 3 0 14 0 28 38 34 12 10 7 4 3 1 3 4 3 1 1 0 0 0 0 0 0 0 0 0 0
5 6 11 7 12 7 18 39 31 14 12 32 25 10 4 10 7 11 0 0 0 0 0 0 0 9 0 0 1 4 3 33 0 5 0 24 3 2 10 7 6 6 10 6 0 0 0 0 0 0 0 0 0 0
2 1 8 10 3 3 0 0 2 9 8 18 0 0 1 4 0 0 0 0 0 0 0 0 0 0 0 0 0 1 0 6 14 0 0 0 9 12 7 6 1 4 7 3 0 0 1 1 1 1 1 0 0 0
5 4 3 0 0 0 0 0 0 0 0 0 0 0 0 0 0 0 0 0 0 0 0 0 0 0 0 0 1 0 0 0 1 0 0 1 1 6 6 4 3 3 4 4 3 2 3 2 3 5 5 3 2 1
6 1 0 0 0 0 0 0 0 0 0 0 0 0 0 0 0 0 0 0 0 2 0 0 1 0 0 0 0 0 0 0 0 0 0 0 12 6 4 4 4 4 4 3 3 3 2 2 2 2 2 1 3 2
0 0 0 0 0 0 0 0 0 0 0 0 0 0 0 0 0 0 1 0 0 1 1 2 0 0 0 0 0 0 0 0 0 0 2 8 4 4 4 2 2 2 2 1 2 2 2 2 2 3 1 1 0 0
0 0 0 0 0 0 0 0 0 0 0 0 0 0 0 0 0 0 0 0 0 0 0 1 0 0 0 0 0 0 0 0 0 0 0 6 1 3 4 4 1 1 0 1 0 0 0 0 0 0 0 0 0 0
0 0 0 0 0 0 0 0 0 0 0 0 0 0 0 0 0 0 0 0 0 1 0 0 0 4 0 0 0 0 0 0 0 0 0 0 3 2 4 6 4 2 0 0 0 0 0 0 0 0 0 0 0 0
0 0 0 0 0 0 0 0 0 0 0 0 0 0 0 0 0 0 0 0 0 0 0 0 0 0 0 0 0 0 0 0 0 1 1 0 0 0 1 2 2 1 0 1 1 2 1 0 0 1 0 0 0 0
0 0 0 0 0 0 0 0 0 0 0 1 0 0 0 2 1 0 2 0 1 0 0 0 0 0 0 0 0 1 0 0 0 1 0 0 0 0 0 0 0 0 0 0 1 5 5 5 1 1 1 3 2 1
0 0 0 0 0 0 0 0 0 0 0 1 2 0 4 0 0 0 0 0 0 0 0 0 0 0 0 0 0 0 1 0 0 0 0 0 0 0 0 0 0 1 1 1 1 1 0 0 0 0 4 3 2 2
1 0 0 0 0 0 0 0 0 0 4 11 0 0 0 0 0 0 0 0 0 0 0 0 0 0 0 0 0 0 0 0 0 0 0 0 0 1 2 1 1 0 1 1 1 1 1 1 1 1 1 0 1 1
0 0 0 0 0 0 0 0 0 0 5 2 0 1 3 2 0 0 0 0 0 0 0 0 0 0 0 0 0 0 0 0 0 0 0 1 1 0 0 0 1 0 0 0 0 0 0 0 0 0 0 0 0 0
0 0 0 0 0 0 0 0 0 0 0 11 0 1 0 0 0 0 0 0 0 0 1 0 0 0 1 0 0 0 0 0 1 1 3 1 2 1 1 0 0 0 0 0 0 0 0 0 0 0 0 0 0 0
0 0 0 0 0 0 0 0 0 0 0 0 0 0 0 0 0 0 0 0 1 1 0 0 0 2 1 1 0 1 0 0 0 0 0 0 0 0 0 0 0 0 0 0 0 0 0 0 0 0 0 0 0 0
0 0 0 0 0 0 0 0 0 0 0 0 0 0 0 0 0 0 0 5 4 0 0 0 0 0 0 0 0 0 0 0 0 0 0 0 0 0 0 0 0 0 0 0 0 0 0 0 0 0 0 0 0 0
0 0 0 0 0 0 0 0 0 0 0 0 0 0 2 0 0 0 0 0 1 5 0 0 0 0 0 0 0 0 0 0 0 0 0 0 0 0 0 0 0 0 0 0 0 0 0 0 0 0 0 0 0 0
0 0 0 0 0 0 0 0 0 0 0 0 0 0 0 0 0 0 0 0 0 0 0 0 0 0 0 0 0 0 0 0 0 0 0 0 0 0 0 0 0 0 0 0 0 0 0 0 0 0 0 0 0 0
0 0 0 0 0 0 0 0 0 0 0 0 0 0 0 0 0 0 0 0 0 0 0 0 0 0 0 0 0 0 0 0 0 0 0 0 0 0 0 0 0 0 0 0 0 0 0 0 0 0 0 0 0 0
0 0 0 0 0 0 0 0 0 0 0 0 0 0 0 0 0 0 0 0 0 0 0 0 0 0 0 0 0 0 0 0 0 0 0 0 0 0 0 0 0 0 0 0 0 0 0 0 0 0 0 0 0 0
0 0 0 0 0 0 0 0 0 0 0 0 0 0 0 0 0 0 0 0 0 0 0 0 0 0 0 0 0 0 0 0 0 0 0 0 0 0 0 0 0 0 0 0 0 0 0 0 0 0 0 0 0 0
0 0 0 0 0 0 0 0 0 0 0 0 0 0 0 0 0 0 0 0 0 0 0 0 0 0 0 0 0 0 0 0 0 0 0 0 0 0 0 0 0 0 0 0 0 0 0 0 0 0 0 0 0 0
0 0 0 0 0 0 0 0 0 0 0 0 0 0 0 0 0 0 0 0 0 0 0 0 0 0 0 0 0 0 0 0 0 0 0 0 0 0 0 0 0 0 0 0 0 0 0 0 0 0 0 0 0 0
0 0 0 0 0 0 0 0 0 0 0 0 0 0 0 0 0 0 0 0 0 0 0 0 0 0 0 0 0 0 0 0 0 0 0 0 0 0 0 0 0 0 0 0 0 0 0 0 0 0 0 0 0 0
0 0 0 0 0 0 0 0 0 0 0 0 0 0 0 0 0 0 0 0 0 0 0 0 0 0 0 0 0 0 0 0 0 0 0 0 0 0 0 0 0 0 0 0 0 0 0 0 0 0 0 0 0 0
0 0 0 0 0 0 0 0 0 0 0 0 0 0 0 0 0 0 0 0 0 0 0 0 0 0 0 0 0 0 0 0 0 0 0 0 0 0 0 0 0 0 0 0 0 0 0 0 0 0 0 0 0 0